Location: Sagn�
(15.2046°N, 12.7898°W)
Time: 13:41:53
(UTC+00:00)

OBJECT-B - Pass Details

Date: 08 May 2021
Orbit: 414 x 423 km, 97.0° (Epoch: 05 June)

Event Time Altitude Azimuth Distance (km) Brightness Sun altitude
Exits shadow 20:22:19 12° 42° (NE) 1,395 3.2 -17.0°
Drops below altitude 10° 20:22:45 10° 36° (NE) 1,505 3.4 -17.1°
Sets 20:25:17 0° 14° (NNE) 2,372 4.7 -17.6°
